[[{"header":{"parameterUnit":"m.s-1","parameterCategory":1,"la1":30.2991,"la2":30.254,"lo1":-89.0895,"lo2":-89.0444,"dy":0.0017,"dx":0.0017,"nx":28,"ny":28,"refTime":"2023-11-06T09:00:00:Z","depth":0,"parameterNumber":2,"parameterNumberName":"U-component_of_WINDS"},"data":[0,0,0,0,0,0,0,0,0,0,0,0,0,0,0,0,0,0,0,0,0,0,0,0,0,0,0,0,0,0,0,0,0,0,0,0,0,0,0,0,0,0,0,0,0,0,0,0,0,0,0,0,0,0,0,0,0,0,0.4567,0.4567,0,0.4528,0.4527,0.4527,0.442,0.4418,0.4416,0.4413,0.4378,0.4379,0.438,0,0,0,0,0,0,0,0,0,0,0,0,0,0.4554,0.4555,0.4567,0.4567,0.4566,0.4528,0.4527,0.4527,0.4421,0.4418,0.4415,0.4412,0.4377,0.4379,0.438,0,0,0,0,0,0,0,0,0,0,0,0,0,0.4542,0.4555,0.4567,0.4508,0.4503,0.4528,0.4527,0.4527,0.4421,0.4418,0.4414,0.4411,0.4377,0.4379,0.438,0.4461,0,0,0.4386,0.4387,0,0,0,0,0,0,0,0,0.4543,0.4543,0.4518,0.4513,0.4506,0.4475,0.4509,0.4505,0.4422,0.4452,0.4413,0.4409,0.4413,0.4412,0.4412,0.4459,0.4457,0.4386,0.4387,0.4388,0.4388,0,0,0,0,0,0,0,0.4544,0.4544,0.4552,0.4517,0.451,0.4485,0.448,0.4508,0.4453,0.4449,0.4442,0.4438,0.4409,0.4411,0.4411,0.4457,0.4386,0.4387,0.4389,0.4389,0.4569,0.4572,0,0,0,0,0,0,0.4552,0.4545,0.4553,0.455,0.4516,0.4488,0.4482,0.4489,0.4452,0.4443,0.4441,0.4433,0.4409,0.4409,0.4409,0.4502,0.4388,0.4389,0.439,0.4565,0.4569,0.4573,0,0,0,0,0,0,0.4553,0.4554,0.4554,0.4546,0.4544,0.4492,0.4501,0.449,0.4491,0.4446,0.4436,0.4452,0.4407,0.4406,0.4448,0.4499,0.439,0.4392,0.4561,0.4566,0.4571,0.4689,0,0,0,0,0,0,0.4553,0.4555,0.4584,0.4547,0.4544,0.4594,0.4504,0.4492,0.4494,0.4483,0.4454,0.4446,0.4404,0.4446,0.445,0.45,0.4393,0.4556,0.4563,0.457,0.468,0.4698,0.4712,0,0,0,0,0,0.4553,0.462,0.4586,0.4588,0.458,0.4597,0.4596,0.4545,0.4498,0.4528,0.4499,0.4447,0.4492,0.4452,0.4455,0.4506,0.4553,0.4561,0.4569,0.4673,0.4694,0.4712,0,0,0,0,0,0,0.4666,0.4614,0.4576,0.4633,0.462,0.4579,0.4615,0.4569,0.4571,0.4561,0.4499,0.4494,0.4545,0.4529,0.4485,0.4582,0.4514,0.4523,0.4592,0.4611,0.4627,0.4632,0.4395,0,0,0,0,0,0.4697,0.4714,0.4668,0.4723,0.4718,0.4668,0.4673,0.4635,0.462,0.4615,0.4589,0.4578,0.4589,0.4599,0.4607,0.4676,0.4669,0.4712,0.4729,0.4742,0.4752,0.479,0.4809,0.4601,0.4601,0.46,0,0,0.4763,0.4736,0.4751,0.4745,0.473,0.4751,0.4664,0.469,0.4705,0.4619,0.4658,0.4638,0.4621,0.4678,0.4701,0.4666,0.4808,0.4753,0.4764,0.4767,0.48,0.482,0.4838,0.4606,0.4605,0.4604,0,0,0.4894,0.4874,0.4918,0.4905,0.4884,0.485,0.486,0.4826,0.4809,0.4846,0.4783,0.48,0.4821,0.4812,0.4811,0.4937,0.489,0.4941,0.5027,0.5064,0.508,0.5095,0.5143,0.516,0.495,0.495,0.4951,0,0.4979,0.5007,0.4947,0.4977,0.4977,0.4897,0.4942,0.4933,0.4916,0.4919,0.4878,0.4903,0.4886,0.494,0.4971,0.4971,0.4983,0.4946,0.5082,0.5096,0.5109,0.5154,0.5172,0.4957,0.4956,0.4956,0.4955,0,0.5113,0.5133,0.5171,0.5156,0.5159,0.5197,0.5144,0.5155,0.5116,0.5087,0.5126,0.5102,0.5105,0.5114,0.5077,0.5163,0.5142,0.5093,0.5024,0.5136,0.5178,0.5194,0.4967,0.4964,0.4962,0.4961,0,0,0.5319,0.5268,0.5283,0.5276,0.5245,0.526,0.5294,0.5295,0.5307,0.5297,0.5326,0.5344,0.5298,0.5297,0.5257,0.5289,0.5393,0.5236,0.5234,0.5269,0.5491,0.5531,0.5552,0.536,0.5363,0.5365,0.5493,0,0.5445,0.5499,0.5446,0.5511,0.553,0.5454,0.5483,0.5469,0.5442,0.5455,0.5425,0.5441,0.5377,0.5376,0.5404,0.5375,0.5438,0.5364,0.5389,0.5391,0.54,0.5573,0.5615,0.5737,0.5509,0.5511,0.5513,0,0.56,0.5596,0.5664,0.5629,0.5635,0.5662,0.5659,0.5671,0.5654,0.5632,0.5629,0.558,0.5612,0.5542,0.5587,0.5538,0.5544,0.5531,0.5535,0.5539,0.5462,0.5585,0.5774,0.5795,0.5537,0.5536,0.5534,0,0.5747,0.5758,0.58,0.5796,0.5755,0.5777,0.5762,0.574,0.5744,0.5741,0.5743,0.5745,0.5747,0.575,0.5703,0.5655,0.5755,0.568,0.5741,0.5742,0.5769,0.5768,0.5966,0.5766,0.5766,0.5766,0.5765,0,0.5896,0.5941,0.5866,0.5893,0.5941,0.5879,0.5929,0.5906,0.5887,0.5909,0.5841,0.5864,0.5799,0.5814,0.5778,0.5822,0.5822,0.5808,0.5798,0.5816,0.5819,0.5823,0.5814,0.5771,0.5769,0.5769,0.5768,0,0.607,0.6021,0.6062,0.602,0.601,0.6048,0.6013,0.6036,0.6003,0.6032,0.6035,0.5985,0.6,0.5952,0.5959,0.5935,0.6001,0.5975,0.6007,0.6001,0.6065,0.6062,0.6276,0.6302,0.6083,0.6085,0.6086,0,0.617,0.6203,0.6163,0.6172,0.616,0.6175,0.6178,0.6118,0.6125,0.6106,0.6133,0.6141,0.6146,0.6174,0.6139,0.6145,0.6121,0.6196,0.6122,0.6139,0.6127,0.6127,0.6131,0.6213,0.6215,0.6218,0.6219,0,0.6355,0.6328,0.6335,0.6333,0.6338,0.6335,0.6326,0.6338,0.6273,0.6284,0.6297,0.6301,0.6307,0.6318,0.6316,0.6301,0.6252,0.6242,0.6257,0.6278,0.6296,0.6291,0.6053,0.6239,0.6237,0.6235,0.6234,0.6233,0.6497,0.6523,0.6499,0.6509,0.6496,0.6489,0.651,0.6478,0.6488,0.6488,0.6452,0.6473,0.6454,0.6446,0.6437,0.6454,0.642,0.6441,0.6447,0.6454,0.6466,0.629,0.6453,0.6452,0.6451,0.6451,0.645,0,0.6681,0.6661,0.667,0.666,0.6668,0.6616,0.6604,0.6615,0.6634,0.6619,0.6624,0.6641,0.6651,0.6616,0.6621,0.6641,0.6619,0.6645,0.6645,0.6644,0.6495,0.6483,0.6664,0.6664,0.6664,0.6664,0.6664,0.6664,0.6778,0.682,0.679,0.6825,0.6805,0.6825,0.6823,0.6817,0.6805,0.6826,0.6833,0.6809,0.6787,0.679,0.6797,0.6786,0.6793,0.6829,0.6811,0.6674,0.6654,0.6634,0.6623,0.683,0.683,0.6959,0.696,0.6961]},{"header":{"parameterUnit":"m.s-1","parameterCategory":1,"la1":30.2991,"la2":30.254,"lo1":-89.0895,"lo2":-89.0444,"dy":0.0017,"dx":0.0017,"nx":28,"ny":28,"refTime":"2023-11-06T09:00:00:Z","depth":0,"parameterNumber":3,"parameterNumberName":"V-component_of_WINDS"},"data":[0,0,0,0,0,0,0,0,0,0,0,0,0,0,0,0,0,0,0,0,0,0,0,0,0,0,0,0,0,0,0,0,0,0,0,0,0,0,0,0,0,0,0,0,0,0,0,0,0,0,0,0,0,0,0,0,0,0,-1.1697,-1.1697,0,-1.1754,-1.1754,-1.1755,-1.1791,-1.1791,-1.1791,-1.1791,-1.1849,-1.185,-1.1852,0,0,0,0,0,0,0,0,0,0,0,0,0,-1.1618,-1.1619,-1.1696,-1.1697,-1.1698,-1.1754,-1.1754,-1.1755,-1.1791,-1.1791,-1.1791,-1.1791,-1.1849,-1.185,-1.1852,0,0,0,0,0,0,0,0,0,0,0,0,0,-1.1661,-1.162,-1.1696,-1.1722,-1.1725,-1.1753,-1.1754,-1.1755,-1.1791,-1.1791,-1.1791,-1.1791,-1.1848,-1.185,-1.1852,-1.1859,0,0,-1.1858,-1.1859,0,0,0,0,0,0,0,0,-1.1659,-1.1664,-1.1718,-1.1721,-1.1724,-1.1765,-1.1748,-1.179,-1.1791,-1.1766,-1.1791,-1.1792,-1.1821,-1.1825,-1.1835,-1.1861,-1.1864,-1.1858,-1.186,-1.186,-1.1861,0,0,0,0,0,0,0,-1.1656,-1.1662,-1.1719,-1.1719,-1.1722,-1.1731,-1.1738,-1.1756,-1.1791,-1.1768,-1.1771,-1.1777,-1.1823,-1.1833,-1.1837,-1.1865,-1.1858,-1.186,-1.1861,-1.1862,-1.19,-1.19,0,0,0,0,0,0,-1.1649,-1.1659,-1.1717,-1.1721,-1.1691,-1.1732,-1.174,-1.1752,-1.1791,-1.1797,-1.1777,-1.1778,-1.183,-1.1834,-1.1839,-1.185,-1.186,-1.1862,-1.1863,-1.19,-1.19,-1.19,0,0,0,0,0,0,-1.1647,-1.1654,-1.1715,-1.1691,-1.1699,-1.1733,-1.1747,-1.1753,-1.1763,-1.1797,-1.1804,-1.1781,-1.183,-1.1836,-1.1854,-1.1852,-1.1863,-1.1865,-1.19,-1.19,-1.19,-1.1871,0,0,0,0,0,0,-1.1644,-1.1653,-1.1655,-1.1691,-1.17,-1.1729,-1.1747,-1.1754,-1.1767,-1.177,-1.1803,-1.1809,-1.1831,-1.185,-1.1856,-1.1855,-1.1867,-1.1901,-1.19,-1.19,-1.1872,-1.187,-1.1868,0,0,0,0,0,-1.1641,-1.1645,-1.1655,-1.1662,-1.1705,-1.1728,-1.1734,-1.1759,-1.1767,-1.177,-1.1792,-1.1808,-1.1852,-1.1852,-1.1858,-1.1858,-1.1901,-1.19,-1.19,-1.1873,-1.187,-1.1868,0,0,0,0,0,0,-1.1608,-1.165,-1.1662,-1.1677,-1.1699,-1.1734,-1.1739,-1.1755,-1.1775,-1.1777,-1.1807,-1.1814,-1.1829,-1.1845,-1.1845,-1.1867,-1.1878,-1.1879,-1.1856,-1.1853,-1.1851,-1.1846,-1.1868,0,0,0,0,0,-1.1602,-1.1618,-1.1654,-1.1663,-1.1674,-1.1705,-1.1716,-1.1733,-1.1757,-1.1767,-1.179,-1.1813,-1.1832,-1.1843,-1.1863,-1.1875,-1.1883,-1.1878,-1.1876,-1.1874,-1.1874,-1.1882,-1.1881,-1.1898,-1.1898,-1.1898,0,0,-1.1591,-1.1615,-1.1624,-1.1657,-1.1677,-1.1692,-1.1712,-1.1728,-1.174,-1.1769,-1.1787,-1.1805,-1.1832,-1.1848,-1.1855,-1.1862,-1.1871,-1.1873,-1.1871,-1.1873,-1.1882,-1.188,-1.1878,-1.1898,-1.1898,-1.1898,0,0,-1.1578,-1.1598,-1.1608,-1.1627,-1.1657,-1.1677,-1.168,-1.1713,-1.1726,-1.1745,-1.1767,-1.1782,-1.1814,-1.1833,-1.1846,-1.1842,-1.1857,-1.1847,-1.1835,-1.1843,-1.1841,-1.184,-1.1839,-1.1838,-1.1847,-1.1847,-1.1847,0,-1.1559,-1.1584,-1.1612,-1.1626,-1.1641,-1.1668,-1.1679,-1.1697,-1.173,-1.1739,-1.1746,-1.1787,-1.1808,-1.1828,-1.1827,-1.1837,-1.1841,-1.1843,-1.1839,-1.1839,-1.1838,-1.1837,-1.1836,-1.1846,-1.1846,-1.1846,-1.1846,0,-1.1561,-1.1578,-1.1583,-1.1615,-1.163,-1.1643,-1.1672,-1.1684,-1.17,-1.172,-1.1739,-1.1765,-1.179,-1.1796,-1.1812,-1.1819,-1.1822,-1.1834,-1.1845,-1.1834,-1.1834,-1.1834,-1.1844,-1.1844,-1.1845,-1.1845,0,0,-1.1527,-1.1575,-1.1577,-1.1592,-1.1627,-1.164,-1.1655,-1.168,-1.169,-1.1712,-1.1725,-1.1752,-1.1763,-1.1779,-1.1797,-1.1804,-1.1799,-1.1815,-1.1816,-1.1811,-1.1809,-1.1799,-1.1799,-1.181,-1.181,-1.181,-1.1806,0,-1.1519,-1.1547,-1.1572,-1.159,-1.1606,-1.1633,-1.1646,-1.1668,-1.1688,-1.1704,-1.1726,-1.1744,-1.1758,-1.1767,-1.1775,-1.1798,-1.1799,-1.1798,-1.1822,-1.1823,-1.1814,-1.1798,-1.1789,-1.1784,-1.1806,-1.1806,-1.1806,0,-1.1514,-1.1536,-1.1555,-1.1589,-1.1597,-1.1608,-1.1633,-1.1649,-1.1675,-1.1689,-1.1707,-1.1726,-1.1743,-1.1753,-1.1777,-1.1776,-1.1787,-1.18,-1.18,-1.1803,-1.1814,-1.1801,-1.1783,-1.1782,-1.1806,-1.1806,-1.1806,0,-1.1487,-1.1522,-1.1538,-1.1551,-1.159,-1.1598,-1.1614,-1.1641,-1.1655,-1.1677,-1.1687,-1.171,-1.1723,-1.1741,-1.1767,-1.1772,-1.1788,-1.18,-1.18,-1.1799,-1.1802,-1.1801,-1.1785,-1.1809,-1.1809,-1.1809,-1.1809,0,-1.1476,-1.1487,-1.1527,-1.1537,-1.1551,-1.158,-1.1593,-1.1612,-1.1636,-1.165,-1.1675,-1.1688,-1.1721,-1.1738,-1.1759,-1.1775,-1.1781,-1.1792,-1.1797,-1.179,-1.1789,-1.1798,-1.1799,-1.1809,-1.1809,-1.1809,-1.1809,0,-1.1449,-1.1476,-1.1496,-1.1532,-1.1542,-1.155,-1.1581,-1.1592,-1.1613,-1.1631,-1.1637,-1.167,-1.1692,-1.1719,-1.1749,-1.1763,-1.1777,-1.1785,-1.1768,-1.1771,-1.177,-1.1769,-1.1759,-1.1759,-1.1782,-1.1782,-1.1782,0,-1.1439,-1.1449,-1.1486,-1.1498,-1.1514,-1.1532,-1.1547,-1.1576,-1.159,-1.1622,-1.1629,-1.1653,-1.1673,-1.1706,-1.1733,-1.1756,-1.1765,-1.176,-1.1768,-1.1761,-1.1765,-1.1764,-1.1765,-1.1757,-1.1757,-1.1757,-1.1756,0,-1.142,-1.1433,-1.1453,-1.1478,-1.1495,-1.1516,-1.1538,-1.1546,-1.158,-1.1595,-1.1617,-1.1633,-1.1664,-1.1687,-1.1714,-1.1732,-1.175,-1.1753,-1.1755,-1.1747,-1.1737,-1.1743,-1.1762,-1.1753,-1.1754,-1.1754,-1.1754,-1.1754,-1.1402,-1.1411,-1.144,-1.1461,-1.1481,-1.1501,-1.1514,-1.1537,-1.1556,-1.1584,-1.16,-1.1622,-1.1649,-1.1688,-1.1705,-1.1722,-1.1729,-1.1731,-1.1731,-1.1731,-1.1729,-1.1734,-1.1727,-1.1728,-1.1728,-1.1728,-1.1728,0,-1.1384,-1.1404,-1.1423,-1.1453,-1.1471,-1.1487,-1.1512,-1.1525,-1.1544,-1.1568,-1.1588,-1.1615,-1.1637,-1.1666,-1.1691,-1.17,-1.1709,-1.1705,-1.1705,-1.1709,-1.1721,-1.1718,-1.1698,-1.1698,-1.1698,-1.1698,-1.1698,-1.1698,-1.1376,-1.1394,-1.1411,-1.1439,-1.1459,-1.1481,-1.1494,-1.1513,-1.1532,-1.1561,-1.158,-1.1599,-1.1625,-1.1652,-1.1674,-1.1682,-1.169,-1.1684,-1.1694,-1.1705,-1.1708,-1.171,-1.1707,-1.1685,-1.1685,-1.168,-1.168,-1.168]}]]